Regional Weather Roundup
Issued by NWS

Home | Current Version | Previous Version | Graphics & Text | Print | Product List | Glossary On
Versions: 1 2 3 4 5 6 7 8 9 10 11 12 13 14 15 16 17 18 19 20 21 22 23 24 25 26 27 28 29 30 31 32 33 34 35 36 37 38 39 40 41 42 43 44 45 46 47 48 49 50
000
ASUS44 KMEG 020710
RWRTN
TENNESSEE HOURLY STATE WEATHER ROUNDUP
NATIONAL WEATHER SERVICE MEMPHIS TN
200 AM CDT THU JUL 02 2015

TNZ002-004-019-021-049-052-054-088>092-020800-
WEST TENNESSEE

CITY           SKY/WX    TMP DP  RH WIND       PRES   REMARKS
MEMPHIS INTL   CLOUDY    80  72  76 SW9G18    29.91F
NWS MEMPHIS      N/A     81 N/A N/A MISG        N/A
JACKSON        CLOUDY    77  72  84 S9        29.91F
DYERSBURG        N/A    N/A N/A N/A MISG        N/A
PARIS          CLEAR     66  64  94 S6        29.89F
LEXINGTON      CLEAR     73  72  94 S5        29.92F
$$

TNZ008-025-027-028-033-062-065-066-020800-
NORTH MIDDLE TENNESSEE

CITY           SKY/WX    TMP DP  RH WIND       PRES   REMARKS
NASHVILLE      CLOUDY    71  71 100 S7        29.93F THUNDER
CLARKSVILLE    CLOUDY    72  69  90 CALM      29.91S
SMYRNA         RAIN      70  69  96 SE6       29.95F FOG
COOKEVILLE     CLOUDY    70  66  88 S3        29.97F
CROSSVILLE     CLOUDY    67  62  84 CALM      30.01F
$$

TNZ061-075-076-078-094-096-097-020800-
SOUTH MIDDLE TENNESSEE

CITY           SKY/WX    TMP DP  RH WIND       PRES   REMARKS
FAYETTEVILLE   CLEAR     66  66 100 S3        29.97F
TULLAHOMA      CLEAR     68  66  94 SW3       29.98F
WINCHESTER     MOCLDY    70  66  88 CALM      29.97F
SHELBYVILLE    PTCLDY    70  70 100 SE3       29.97S
$$

TNZ017-018-042-046-047-020800-
NORTHEAST TENNESSEE

CITY           SKY/WX    TMP DP  RH WIND       PRES   REMARKS
TRI CITIES     CLOUDY    68  65  90 SW10      30.00F
ELIZABETHTON   CLOUDY    66  63  88 W5        30.01F
$$

TNZ012-013-036-069-073-074-020800-
CENTRAL EAST TENNESSEE

CITY           SKY/WX    TMP DP  RH WIND       PRES   REMARKS
KNOXVILLE      CLOUDY    68  65  90 W9        29.98F
OAK RIDGE      MOCLDY    69  65  86 VRB3      30.00F
GATLINBURG     CLOUDY    66  64  94 CALM      29.99F
MORRISTOWN     PTSUNNY   68  64  88 W9        30.00F
$$

TNZ083-085-099-020800-
SOUTHEAST TENNESSEE

CITY           SKY/WX    TMP DP  RH WIND       PRES   REMARKS
CHATTANOOGA    LGT RAIN  68  67  96 N5        30.00F
$$

SKY/WX REPORTED AS FAIR MEANS FEW OR NO CLOUDS BELOW
12 THOUSAND FEET.




USA.gov is the U.S. government's official web portal to all federal, state and local government web resources and services.